Location: Debolt
(55.2626°N, 118.0981°W)
Time: 08:59:17
(UTC+00:00)

PRISM - Visible Passes

Search period start: 02 December 2023 00:00
Search period end: 12 December 2023 00:00
Orbit: 523 x 542 km, 98.2° (Epoch: 01 December)

Date Brightness Start Highest point End Pass type
(mag) Time Alt. Az. Time Alt. Az. Time Alt. Az.
02 Dec ? 01:58:46 21° N 01:58:46 21° N 02:00:15 10° N visible
02 Dec ? 03:34:07 11° NW 03:34:07 11° NW 03:34:21 10° NW visible
02 Dec ? 14:54:29 10° NE 14:57:20 19° E 15:00:10 10° SE visible
03 Dec ? 01:49:13 19° N 01:49:13 19° N 01:50:35 10° N visible
03 Dec ? 03:24:35 12° NW 03:24:35 12° NW 03:24:54 10° NNW visible
03 Dec ? 14:45:11 10° NE 14:47:38 16° E 14:50:03 10° SE visible
04 Dec ? 01:39:36 17° NNE 01:39:36 17° NNE 01:40:50 10° N visible
04 Dec ? 03:14:58 12° NNW 03:14:58 12° NNW 03:15:22 10° NNW visible
04 Dec ? 14:36:01 10° ENE 14:37:52 13° E 14:39:42 10° ESE visible
05 Dec ? 01:29:57 16° NNE 01:29:57 16° NNE 01:31:01 10° N visible
05 Dec ? 03:05:19 13° NNW 03:05:19 13° NNW 03:05:46 10° NNW visible
05 Dec ? 14:27:18 10° ENE 14:28:02 10° E 14:28:45 10° E visible
06 Dec ? 01:20:15 14° NNE 01:20:15 14° NNE 01:21:08 10° N visible
06 Dec ? 02:55:36 13° NNW 02:55:36 13° NNW 02:56:06 10° NNW visible
07 Dec ? 01:10:30 13° NNE 01:10:30 13° NNE 01:11:09 10° NNE visible
07 Dec ? 02:45:51 13° NNW 02:45:51 13° NNW 02:46:23 10° NNW visible
08 Dec ? 01:00:43 11° NNE 01:00:43 11° NNE 01:01:04 10° NNE visible
08 Dec ? 02:36:03 14° NNW 02:36:03 14° NNW 02:36:35 10° NNW visible
09 Dec ? 02:26:12 13° N 02:26:12 13° N 02:26:43 10° NNW visible
09 Dec ? 15:20:16 10° NNE 15:23:43 31° E 15:27:09 10° SSE visible
10 Dec ? 02:16:18 13° N 02:16:18 13° N 02:16:48 10° N visible
10 Dec ? 15:10:31 10° NE 15:13:45 25° E 15:16:58 10° SSE visible
11 Dec ? 02:06:21 13° N 02:06:21 13° N 02:06:49 10° N visible
11 Dec ? 15:00:47 10° NE 15:03:43 20° E 15:06:38 10° SE visible
